[[{"header":{"parameterUnit":"m.s-1","parameterCategory":1,"la1":30.2991,"la2":30.254,"lo1":-89.0895,"lo2":-89.0444,"dy":0.0017,"dx":0.0017,"nx":28,"ny":28,"refTime":"2025-06-20T09:00:00:Z","depth":0,"parameterNumber":2,"parameterNumberName":"U-component_of_WINDS"},"data":[0,0,0,0,0,0,0,0,0,0,0,0,0,0,0,0,0,0,0,0,0,0,0,0,0,0,0,0,0,0,0,0,0,0,0,0,0,0,0,0,0,0,0,0,0,0,0,0,0,0,0,0,0,0,0,0,0,0,-0.4384,-0.4383,0,-0.4345,-0.4344,-0.4344,-0.4312,-0.4312,-0.4312,-0.4311,-0.4269,-0.4269,-0.4268,0,0,0,0,0,0,0,0,0,0,0,0,0,-0.4429,-0.4429,-0.4384,-0.4383,-0.4383,-0.4345,-0.4344,-0.4344,-0.4312,-0.4312,-0.4312,-0.4311,-0.427,-0.4269,-0.4268,0,0,0,0,0,0,0,0,0,0,0,0,0,-0.4402,-0.4428,-0.4384,-0.4363,-0.436,-0.4345,-0.4344,-0.4344,-0.4312,-0.4312,-0.4311,-0.4311,-0.427,-0.4269,-0.4268,-0.427,0,0,-0.4264,-0.4263,0,0,0,0,0,0,0,0,-0.4404,-0.44,-0.4366,-0.4364,-0.4361,-0.4333,-0.4345,-0.4319,-0.4313,-0.4331,-0.4311,-0.4311,-0.4291,-0.4288,-0.4281,-0.4268,-0.4266,-0.4264,-0.4263,-0.4262,-0.4262,0,0,0,0,0,0,0,-0.4405,-0.4402,-0.4368,-0.4366,-0.4363,-0.4355,-0.435,-0.434,-0.4314,-0.4329,-0.4327,-0.4322,-0.4289,-0.4283,-0.428,-0.4265,-0.4264,-0.4263,-0.4262,-0.4261,-0.4252,-0.4253,0,0,0,0,0,0,-0.4411,-0.4404,-0.437,-0.4367,-0.4382,-0.4354,-0.4349,-0.4343,-0.4314,-0.4309,-0.4323,-0.4321,-0.4285,-0.4282,-0.4279,-0.4279,-0.4262,-0.4261,-0.4261,-0.4252,-0.4252,-0.4253,0,0,0,0,0,0,-0.4412,-0.4408,-0.4371,-0.4385,-0.4379,-0.4354,-0.4347,-0.4342,-0.4335,-0.4309,-0.4304,-0.4321,-0.4285,-0.428,-0.4272,-0.4278,-0.4261,-0.426,-0.4251,-0.4252,-0.4252,-0.4281,0,0,0,0,0,0,-0.4413,-0.4409,-0.4409,-0.4385,-0.4379,-0.4366,-0.4347,-0.4342,-0.4334,-0.4331,-0.4306,-0.4302,-0.4284,-0.4274,-0.4271,-0.4276,-0.4259,-0.425,-0.4251,-0.4252,-0.428,-0.4283,-0.4286,0,0,0,0,0,-0.4415,-0.4418,-0.441,-0.4406,-0.4379,-0.4366,-0.4363,-0.4343,-0.4334,-0.4335,-0.4318,-0.4302,-0.4278,-0.4274,-0.427,-0.4274,-0.425,-0.4251,-0.4252,-0.4278,-0.4282,-0.4285,0,0,0,0,0,0,-0.4443,-0.4415,-0.4405,-0.44,-0.4386,-0.4361,-0.4361,-0.4347,-0.4335,-0.4333,-0.4308,-0.4303,-0.4297,-0.4285,-0.4281,-0.4275,-0.4262,-0.4262,-0.4283,-0.4287,-0.429,-0.4292,-0.4258,0,0,0,0,0,-0.4449,-0.4441,-0.4417,-0.4415,-0.4409,-0.4386,-0.438,-0.4366,-0.435,-0.4343,-0.4326,-0.4311,-0.43,-0.4292,-0.4281,-0.4278,-0.4272,-0.4279,-0.4282,-0.4285,-0.4285,-0.4283,-0.4286,-0.4256,-0.4256,-0.4256,0,0,-0.446,-0.4444,-0.4441,-0.4421,-0.4408,-0.44,-0.4381,-0.4374,-0.4368,-0.4342,-0.4334,-0.4321,-0.4302,-0.4297,-0.4294,-0.4286,-0.4292,-0.4286,-0.4288,-0.4287,-0.4284,-0.4287,-0.429,-0.4257,-0.4257,-0.4257,0,0,-0.4477,-0.4465,-0.4462,-0.445,-0.4432,-0.4417,-0.4417,-0.4394,-0.4384,-0.4376,-0.4357,-0.4349,-0.433,-0.4318,-0.4309,-0.4323,-0.4309,-0.432,-0.4335,-0.4334,-0.4336,-0.4338,-0.4343,-0.4345,-0.4321,-0.4321,-0.4321,0,-0.4494,-0.4482,-0.4462,-0.4456,-0.4448,-0.4426,-0.4423,-0.4412,-0.4391,-0.4385,-0.4378,-0.4355,-0.434,-0.4332,-0.4336,-0.433,-0.4328,-0.4322,-0.4337,-0.4339,-0.4341,-0.4345,-0.4347,-0.4322,-0.4322,-0.4322,-0.4322,0,-0.4503,-0.4495,-0.4495,-0.4476,-0.4468,-0.4464,-0.4443,-0.4437,-0.4425,-0.4411,-0.4403,-0.4385,-0.437,-0.4367,-0.4354,-0.4357,-0.4353,-0.4342,-0.4328,-0.4345,-0.4349,-0.4351,-0.4325,-0.4324,-0.4324,-0.4323,0,0,-0.4535,-0.4506,-0.4506,-0.4498,-0.4477,-0.447,-0.4465,-0.4451,-0.4446,-0.4433,-0.4427,-0.4413,-0.4403,-0.4393,-0.4379,-0.4377,-0.439,-0.4366,-0.4365,-0.4371,-0.4393,-0.4401,-0.4403,-0.4381,-0.4381,-0.4381,-0.4394,0,-0.4548,-0.4538,-0.4521,-0.4516,-0.4509,-0.4488,-0.4484,-0.4471,-0.4458,-0.4449,-0.4435,-0.4425,-0.4413,-0.4407,-0.4405,-0.4389,-0.4394,-0.4388,-0.4375,-0.4375,-0.438,-0.4405,-0.4413,-0.4426,-0.4395,-0.4396,-0.4396,0,-0.4561,-0.455,-0.4545,-0.4525,-0.4522,-0.4518,-0.4504,-0.4497,-0.4481,-0.4472,-0.4462,-0.4447,-0.444,-0.4429,-0.4419,-0.4416,-0.441,-0.4401,-0.4401,-0.4398,-0.4386,-0.4402,-0.443,-0.4432,-0.4398,-0.4398,-0.4398,0,-0.4585,-0.4568,-0.4563,-0.4556,-0.4533,-0.4531,-0.4522,-0.4506,-0.4499,-0.4487,-0.4482,-0.4469,-0.4462,-0.4452,-0.4434,-0.4427,-0.4427,-0.4414,-0.4419,-0.4419,-0.4418,-0.4418,-0.4445,-0.4416,-0.4416,-0.4416,-0.4416,0,-0.4601,-0.4598,-0.4573,-0.457,-0.4567,-0.4548,-0.4545,-0.4533,-0.452,-0.4514,-0.4496,-0.449,-0.4467,-0.4459,-0.4445,-0.444,-0.4437,-0.4429,-0.4425,-0.443,-0.4431,-0.4425,-0.4423,-0.4416,-0.4416,-0.4416,-0.4416,0,-0.4625,-0.4609,-0.4602,-0.4581,-0.4576,-0.4575,-0.4557,-0.4553,-0.454,-0.4533,-0.453,-0.4509,-0.4499,-0.4481,-0.4465,-0.4456,-0.4453,-0.4447,-0.4458,-0.4456,-0.4462,-0.4461,-0.4484,-0.4486,-0.4457,-0.4458,-0.4458,0,-0.4636,-0.4634,-0.4614,-0.4609,-0.46,-0.4592,-0.4586,-0.4567,-0.456,-0.4544,-0.4542,-0.4531,-0.452,-0.4505,-0.4488,-0.4477,-0.4469,-0.4479,-0.4467,-0.4473,-0.4469,-0.4469,-0.4469,-0.4481,-0.4481,-0.4481,-0.4482,0,-0.4657,-0.4649,-0.464,-0.4629,-0.4622,-0.4612,-0.4601,-0.4598,-0.4576,-0.457,-0.456,-0.4552,-0.4537,-0.4526,-0.4512,-0.4502,-0.4488,-0.4486,-0.4486,-0.4491,-0.4497,-0.4493,-0.4464,-0.4485,-0.4484,-0.4484,-0.4484,-0.4484,-0.4674,-0.4672,-0.4657,-0.4648,-0.4639,-0.4629,-0.4625,-0.4612,-0.4603,-0.459,-0.458,-0.4571,-0.4556,-0.4536,-0.4527,-0.4519,-0.4513,-0.4513,-0.4513,-0.4514,-0.4516,-0.45,-0.4517,-0.4517,-0.4516,-0.4516,-0.4516,0,-0.4694,-0.4684,-0.4676,-0.4662,-0.4655,-0.4644,-0.4632,-0.4627,-0.4619,-0.4607,-0.4598,-0.4587,-0.4577,-0.456,-0.4548,-0.4545,-0.4539,-0.4543,-0.4542,-0.454,-0.4522,-0.4523,-0.4548,-0.4548,-0.4548,-0.4548,-0.4548,-0.4548,-0.4703,-0.4698,-0.4689,-0.4679,-0.4669,-0.4661,-0.4655,-0.4646,-0.4636,-0.4625,-0.4617,-0.4607,-0.4593,-0.458,-0.457,-0.4566,-0.4562,-0.4568,-0.4561,-0.4544,-0.4541,-0.4538,-0.4539,-0.4567,-0.4567,-0.4579,-0.458,-0.458]},{"header":{"parameterUnit":"m.s-1","parameterCategory":1,"la1":30.2991,"la2":30.254,"lo1":-89.0895,"lo2":-89.0444,"dy":0.0017,"dx":0.0017,"nx":28,"ny":28,"refTime":"2025-06-20T09:00:00:Z","depth":0,"parameterNumber":3,"parameterNumberName":"V-component_of_WINDS"},"data":[0,0,0,0,0,0,0,0,0,0,0,0,0,0,0,0,0,0,0,0,0,0,0,0,0,0,0,0,0,0,0,0,0,0,0,0,0,0,0,0,0,0,0,0,0,0,0,0,0,0,0,0,0,0,0,0,0,0,1.8321,1.8321,0,1.8371,1.8372,1.8372,1.8435,1.8436,1.8437,1.8438,1.8486,1.8486,1.8487,0,0,0,0,0,0,0,0,0,0,0,0,0,1.8274,1.8274,1.832,1.8321,1.8322,1.8371,1.8372,1.8373,1.8435,1.8436,1.8438,1.8439,1.8486,1.8486,1.8487,0,0,0,0,0,0,0,0,0,0,0,0,0,1.8306,1.8274,1.832,1.8359,1.8363,1.8371,1.8372,1.8373,1.8435,1.8436,1.8438,1.8439,1.8486,1.8486,1.8487,1.846,0,0,1.8488,1.8489,0,0,0,0,0,0,0,0,1.8304,1.8308,1.8353,1.8356,1.8361,1.8399,1.8373,1.8402,1.8435,1.8407,1.8438,1.844,1.8456,1.8459,1.8465,1.8462,1.8464,1.8488,1.8489,1.8489,1.8489,0,0,0,0,0,0,0,1.8302,1.8306,1.834,1.8353,1.8358,1.8373,1.8379,1.8379,1.8422,1.841,1.8415,1.842,1.8458,1.8464,1.8466,1.8465,1.8488,1.8489,1.8489,1.8489,1.844,1.8439,0,0,0,0,0,0,1.8294,1.8304,1.8339,1.8342,1.8336,1.8372,1.8379,1.8385,1.8422,1.843,1.8419,1.8423,1.8462,1.8466,1.8468,1.8437,1.8489,1.8489,1.849,1.8442,1.844,1.8438,0,0,0,0,0,0,1.8293,1.8297,1.8337,1.8324,1.833,1.8371,1.8377,1.8385,1.8391,1.8429,1.8437,1.8417,1.8464,1.8467,1.8461,1.844,1.849,1.849,1.8444,1.8441,1.8439,1.8376,0,0,0,0,0,0,1.8292,1.8296,1.8287,1.8324,1.8331,1.833,1.8376,1.8385,1.8392,1.8398,1.843,1.8436,1.8465,1.846,1.8462,1.8441,1.849,1.8446,1.8443,1.844,1.838,1.8371,1.8364,0,0,0,0,0,1.829,1.8267,1.8286,1.829,1.8321,1.8329,1.8333,1.8368,1.839,1.8381,1.8405,1.8435,1.8442,1.8459,1.8461,1.8441,1.8447,1.8443,1.844,1.8383,1.8373,1.8364,0,0,0,0,0,0,1.8226,1.8272,1.8294,1.8283,1.8302,1.8339,1.8328,1.8356,1.8367,1.8372,1.8414,1.842,1.8408,1.8425,1.8442,1.8416,1.8449,1.8446,1.8405,1.8396,1.8388,1.8384,1.8491,0,0,0,0,0,1.8211,1.8214,1.8255,1.8241,1.8249,1.8287,1.8292,1.8317,1.8337,1.8345,1.8369,1.8386,1.8392,1.8395,1.8403,1.8383,1.839,1.837,1.8362,1.8356,1.8352,1.834,1.8331,1.8426,1.8426,1.8426,0,0,1.8178,1.8205,1.8204,1.8228,1.8246,1.8247,1.8293,1.8293,1.8294,1.8345,1.834,1.8358,1.838,1.8366,1.8362,1.8379,1.8327,1.8351,1.8346,1.8345,1.8336,1.8327,1.8319,1.8424,1.8424,1.8425,0,0,1.8121,1.8142,1.8132,1.8148,1.8174,1.82,1.8197,1.8231,1.8245,1.8242,1.8279,1.8281,1.8291,1.8304,1.8313,1.826,1.8287,1.8261,1.8219,1.8208,1.82,1.8194,1.8173,1.8165,1.8257,1.8257,1.8257,0,1.8077,1.8082,1.8123,1.812,1.8128,1.8176,1.8165,1.8179,1.8205,1.8209,1.823,1.8242,1.8261,1.825,1.8237,1.8243,1.824,1.8257,1.8198,1.8192,1.8187,1.8167,1.8159,1.8254,1.8254,1.8254,1.8255,0,1.8027,1.8029,1.8018,1.8043,1.8051,1.8044,1.8081,1.8084,1.8109,1.8132,1.8126,1.815,1.8163,1.8163,1.8187,1.8155,1.8165,1.8191,1.8225,1.8174,1.8156,1.8149,1.8249,1.825,1.8251,1.8252,0,0,1.7929,1.7977,1.7971,1.7983,1.8015,1.8017,1.8012,1.8026,1.8026,1.8043,1.8038,1.8046,1.807,1.8079,1.8105,1.8095,1.8049,1.8123,1.8124,1.8106,1.8013,1.7991,1.7982,1.8069,1.8067,1.8066,1.801,0,1.7875,1.787,1.7905,1.789,1.7891,1.7937,1.7932,1.795,1.7971,1.7975,1.7998,1.8002,1.8035,1.8041,1.8033,1.8056,1.8031,1.8061,1.8062,1.8062,1.8053,1.7973,1.795,1.7896,1.8004,1.8003,1.8002,0,1.7812,1.7826,1.781,1.7842,1.7844,1.7839,1.7854,1.7858,1.7879,1.7895,1.7905,1.7935,1.7931,1.7965,1.7958,1.7978,1.798,1.7992,1.7991,1.799,1.8027,1.7968,1.788,1.7871,1.7992,1.7993,1.7993,0,1.7739,1.7754,1.7746,1.7755,1.7793,1.7788,1.7803,1.7826,1.7831,1.7844,1.7848,1.7859,1.7865,1.7872,1.7904,1.7927,1.7893,1.793,1.7904,1.7903,1.7893,1.7892,1.7801,1.7898,1.7898,1.7898,1.7899,0,1.7674,1.7662,1.7714,1.7709,1.7696,1.7737,1.7723,1.7743,1.7763,1.7761,1.7802,1.7799,1.7842,1.7844,1.7869,1.7858,1.7861,1.7872,1.7878,1.7867,1.7865,1.7868,1.7871,1.7896,1.7897,1.7897,1.7897,0,1.7589,1.7624,1.7618,1.7655,1.7664,1.7653,1.7683,1.7679,1.7703,1.7701,1.7702,1.7739,1.7743,1.7777,1.7788,1.7805,1.7783,1.7798,1.7776,1.778,1.7751,1.7752,1.7656,1.7645,1.7751,1.775,1.7749,0,1.7545,1.7537,1.7572,1.7575,1.7588,1.7592,1.7598,1.7637,1.7642,1.7665,1.7657,1.7665,1.7673,1.7677,1.7704,1.7712,1.7726,1.7692,1.7727,1.7716,1.7723,1.7722,1.772,1.7683,1.7682,1.7681,1.768,0,1.746,1.7478,1.7486,1.7499,1.7505,1.7517,1.7532,1.7531,1.7575,1.7577,1.7582,1.7589,1.76,1.7606,1.762,1.7634,1.7663,1.7669,1.7663,1.765,1.7637,1.7641,1.7753,1.7671,1.7671,1.7672,1.7673,1.7673,1.7393,1.7387,1.7411,1.7418,1.7433,1.7446,1.7443,1.7468,1.7473,1.7486,1.7509,1.751,1.7531,1.7552,1.7564,1.7564,1.7581,1.7573,1.7571,1.7567,1.756,1.7639,1.7567,1.7567,1.7567,1.7568,1.7568,0,1.7309,1.7327,1.7333,1.7352,1.7357,1.7386,1.7404,1.7405,1.7406,1.7423,1.743,1.7435,1.7441,1.7469,1.7478,1.7473,1.7486,1.7473,1.7473,1.7475,1.7546,1.7549,1.7462,1.7462,1.7462,1.7462,1.7462,1.7462,1.7265,1.7257,1.7277,1.7276,1.7294,1.7296,1.7303,1.7314,1.7328,1.7332,1.7337,1.7356,1.7377,1.7387,1.7394,1.7402,1.7402,1.7384,1.7396,1.746,1.747,1.748,1.7483,1.7384,1.7384,1.7325,1.7325,1.7324]}]]